AMAZONAS 2

Last updated on Mon Oct 20 2025 00:02:46 GMT+0000 (Coordinated Universal Time)

1 35942U 09054A 25292.25527049 -.00000284 00000+0 00000+0 0 9998 2 35942 1.1875 86.2948 0003470 127.7599 205.0550 1.00271388 58761
UTC large
Height (km)
Speed (km/s)
/
Latitude / Longitude
Inclination (degrees)
Orbital Period (minutes)
Azimuth
Elevation
Range (km)
Doppler Factor

Next 0 passes for location: London (51.5072 / 0.1276)

Sorry there are no passes over London.